Location: Alpha Ridge Park
(39.3209°N, 76.9128°W)
Time: 02:25:20
(UTC-04:00)

NOAA 15 - Visible Passes

Search period start: 28 June 2022 00:00
Search period end: 08 July 2022 00:00
Orbit: 798 x 811 km, 98.6° (Epoch: 27 June)

Date Brightness Start Highest point End Pass type
(mag) Time Alt. Az. Time Alt. Az. Time Alt. Az.
28 Jun 7.6 21:44:56 10° W 21:45:58 11° W 21:47:01 10° WNW visible
29 Jun 7.1 21:16:40 10° SW 21:20:24 19° W 21:24:10 10° NW visible
02 Jul 7.5 21:43:14 10° WSW 21:44:37 11° W 21:46:00 10° WNW visible
03 Jul 7.1 21:15:14 10° SW 21:19:03 20° W 21:22:53 10° NW visible
06 Jul 7.5 21:41:37 10° WSW 21:43:16 11° W 21:44:56 10° WNW visible
07 Jul 7.1 21:13:49 10° SW 21:17:42 21° W 21:21:37 10° NW visible
